Data No,UTC Date,UTC Time,Latitude,Longitude,Course(deg),Temp(degC),Sal(psu),Fluor Int,Blank
78,2004/1/4,12:20:00, 10-59.508N,100-00.056E,115.5,   ----,32.0713,205,166
79,2004/1/4,12:21:00, 10-59.409N,100-00.259E,115.9,   ----,32.0714,201,166
80,2004/1/4,12:22:00, 10-59.310N,100-00.466E,116.5,   ----,32.0705,213,166
81,2004/1/4,12:23:00, 10-59.209N,100-00.670E,116.1,   ----,32.0707,207,166
82,2004/1/4,12:24:00, 10-59.111N,100-00.876E,116.1,   ----,32.0702,208,166
83,2004/1/4,12:25:00, 10-59.012N,100-01.081E,115.5,   ----,32.0681,206,166
84,2004/1/4,12:26:00, 10-58.915N,100-01.287E,115.9,   ----,32.0695,200,166
85,2004/1/4,12:27:00, 10-58.816N,100-01.491E,115,   ----,32.0685,212,166
86,2004/1/4,12:28:00, 10-58.719N,100-01.696E,115.3,   ----,32.0683,195,166
87,2004/1/4,12:29:00, 10-58.620N,100-01.903E,115.7,   ----,32.0671,227,166
88,2004/1/4,12:30:00, 10-58.522N,100-02.109E,114.4,   ----,32.0673,212,166
89,2004/1/4,12:31:00, 10-58.427N,100-02.316E,116,   ----,32.0698,213,166
90,2004/1/4,12:32:00, 10-58.323N,100-02.520E,117.6,   ----,32.0645,205,166
91,2004/1/4,12:33:00, 10-58.221N,100-02.722E,115.5,   ----,32.0646,206,166
92,2004/1/4,12:34:00, 10-58.123N,100-02.931E,116.3,   ----,32.0617,193,166
93,2004/1/4,12:35:00, 10-58.019N,100-03.135E,117.8,   ----,32.0607,199,166
94,2004/1/4,12:36:00, 10-57.918N,100-03.339E,117.4,   ----,32.0599,214,166
95,2004/1/4,12:37:00, 10-57.812N,100-03.542E,116.7,   ----,32.0571,204,166
96,2004/1/4,12:38:00, 10-57.709N,100-03.747E,118.2,   ----,32.0573,204,166
97,2004/1/4,12:39:00, 10-57.608N,100-03.953E,115.7,   ----,32.0547,205,166
98,2004/1/4,12:40:00, 10-57.506N,100-04.159E,117.5,   ----,32.0551,205,166
99,2004/1/4,12:41:00, 10-57.400N,100-04.362E,117.6,   ----,32.0495,201,166
100,2004/1/4,12:42:00, 10-57.296N,100-04.566E,117.6,   ----,32.0525,202,166
101,2004/1/4,12:43:00, 10-57.191N,100-04.769E,117.9,   ----,32.0542,201,166
102,2004/1/4,12:44:00, 10-57.086N,100-04.971E,116.3,   ----,32.0537,208,166
103,2004/1/4,12:45:00, 10-56.985N,100-05.175E,116.8,   ----,32.0498,210,166
104,2004/1/4,12:46:00, 10-56.881N,100-05.380E,117.3,   ----,32.0543,217,166
105,2004/1/4,12:47:00, 10-56.775N,100-05.584E,117.6,   ----,32.0538,212,166
106,2004/1/4,12:48:00, 10-56.670N,100-05.786E,117.6,   ----,32.0527,203,166
107,2004/1/4,12:49:00, 10-56.569N,100-05.991E,116.3,   ----,32.0523,205,166
108,2004/1/4,12:50:00, 10-56.466N,100-06.197E,116,   ----,32.0528,208,166
109,2004/1/4,12:51:00, 10-56.364N,100-06.402E,117.2,   ----,32.0519,219,166
110,2004/1/4,12:52:00, 10-56.259N,100-06.604E,117.7,   ----,32.0521,195,166
111,2004/1/4,12:53:00, 10-56.153N,100-06.808E,117.4,   ----,32.0586,206,166
112,2004/1/4,12:54:00, 10-56.049N,100-07.011E,117.4,   ----,32.0527,196,166
113,2004/1/4,12:55:00, 10-55.944N,100-07.215E,117.4,   ----,32.0544,175,166
114,2004/1/4,12:56:00, 10-55.836N,100-07.417E,120.2,   ----,32.0546,217,166
115,2004/1/4,12:57:00, 10-55.728N,100-07.619E,117.8,   ----,32.052,208,166
116,2004/1/4,12:58:00, 10-55.621N,100-07.821E,118,   ----,32.0592,202,166
117,2004/1/4,12:59:00, 10-55.515N,100-08.025E,118,   ----,32.0604,201,166
118,2004/1/4,13:00:00, 10-55.411N,100-08.228E,116,   ----,32.0628,210,166
119,2004/1/4,13:01:00, 10-55.305N,100-08.431E,116.8,   ----,32.0639,223,166
120,2004/1/4,13:02:00, 10-55.202N,100-08.636E,117.5,   ----,32.0658,256,166
121,2004/1/4,13:03:00, 10-55.095N,100-08.838E,116.8,   ----,32.0675,295,166
122,2004/1/4,13:04:00, 10-54.991N,100-09.043E,118.3,   ----,32.0692,335,166
123,2004/1/4,13:05:00, 10-54.888N,100-09.243E,118.2,   ----,32.0692,222,166
124,2004/1/4,13:06:00, 10-54.783N,100-09.445E,117.2,   ----,32.0691,187,166
125,2004/1/4,13:07:00, 10-54.676N,100-09.649E,119.9,   ----,32.0736,266,166
126,2004/1/4,13:08:00, 10-54.570N,100-09.850E,116.8,   ----,32.0764,215,166
127,2004/1/4,13:09:00, 10-54.463N,100-10.053E,119.7,   ----,32.0807,198,166
128,2004/1/4,13:10:00, 10-54.354N,100-10.252E,118.7,   ----,32.0836,   ----,166
129,2004/1/4,13:11:00, 10-54.244N,100-10.451E,118.6,   ----,32.0869,184,166
130,2004/1/4,13:12:00, 10-54.133N,100-10.650E,118.6,   ----,32.0933,195,166
131,2004/1/4,13:13:00, 10-54.026N,100-10.853E,119.2,   ----,32.1022,224,166
132,2004/1/4,13:14:00, 10-53.916N,100-11.052E,119.3,   ----,32.1074,216,166
133,2004/1/4,13:15:00, 10-53.805N,100-11.250E,118.6,   ----,32.1094,203,166
134,2004/1/4,13:16:00, 10-53.696N,100-11.450E,119.1,   ----,32.1089,201,166
135,2004/1/4,13:17:00, 10-53.588N,100-11.649E,119.3,   ----,32.1065,230,166
136,2004/1/4,13:18:00, 10-53.476N,100-11.853E,118.2,   ----,32.1038,214,166
137,2004/1/4,13:19:00, 10-53.367N,100-12.057E,118.6,   ----,32.099,197,166
138,2004/1/4,13:20:00, 10-53.258N,100-12.257E,118.7,   ----,32.0944,269,166
139,2004/1/4,13:21:00, 10-53.147N,100-12.458E,119,   ----,32.0914,242,166
140,2004/1/4,13:22:00, 10-53.036N,100-12.660E,119.5,   ----,32.0893,199,166
141,2004/1/4,13:23:00, 10-52.928N,100-12.860E,119.9,   ----,32.0868,350,166
142,2004/1/4,13:24:00, 10-52.818N,100-13.060E,119.2,   ----,32.086,211,166
143,2004/1/4,13:25:00, 10-52.711N,100-13.261E,117.3,   ----,32.0872,209,166
144,2004/1/4,13:26:00, 10-52.607N,100-13.462E,118,   ----,32.089,257,166
145,2004/1/4,13:27:00, 10-52.506N,100-13.664E,117.2,   ----,32.0912,167,166
146,2004/1/4,13:28:00, 10-52.404N,100-13.867E,117.4,   ----,32.0922,211,166
147,2004/1/4,13:29:00, 10-52.301N,100-14.070E,117,   ----,32.0946,187,166
148,2004/1/4,13:30:00, 10-52.200N,100-14.275E,116.7,   ----,32.0899,   ----,166
149,2004/1/4,13:31:00, 10-52.096N,100-14.479E,118.5,   ----,32.0818,197,166
150,2004/1/4,13:32:00, 10-51.990N,100-14.680E,116.3,   ----,32.0671,210,166
151,2004/1/4,13:33:00, 10-51.887N,100-14.883E,117.5,   ----,32.0444,191,166
152,2004/1/4,13:34:00, 10-51.782N,100-15.085E,118.2,   ----,32.0262,179,166
153,2004/1/4,13:35:00, 10-51.674N,100-15.287E,118.3,   ----,32.0213,   ----,166
154,2004/1/4,13:36:00, 10-51.571N,100-15.486E,116.8,   ----,32.0152,198,166
155,2004/1/4,13:37:00, 10-51.470N,100-15.691E,117.9,   ----,32.0052,199,166
156,2004/1/4,13:38:00, 10-51.364N,100-15.894E,117.2,   ----,31.9983,195,166
157,2004/1/4,13:39:00, 10-51.259N,100-16.096E,117.2,   ----,31.9925,224,166
158,2004/1/4,13:40:00, 10-51.156N,100-16.299E,116.9,   ----,31.9888,246,166
159,2004/1/4,13:41:00, 10-51.058N,100-16.503E,116.3,   ----,31.9869,214,166
160,2004/1/4,13:42:00, 10-50.955N,100-16.706E,118.7,   ----,31.9858,204,166
161,2004/1/4,13:43:00, 10-50.850N,100-16.907E,117.1,   ----,31.9834,237,166
162,2004/1/4,13:44:00, 10-50.747N,100-17.106E,117.7,   ----,31.9798,169,166
163,2004/1/4,13:45:00, 10-50.641N,100-17.312E,116.9,   ----,31.9754,195,166
164,2004/1/4,13:46:00, 10-50.537N,100-17.516E,116.8,   ----,31.9726,211,166
165,2004/1/4,13:47:00, 10-50.436N,100-17.717E,116.6,   ----,31.9702,230,166
166,2004/1/4,13:48:00, 10-50.331N,100-17.918E,118.4,   ----,31.9677,256,166
167,2004/1/4,13:49:00, 10-50.227N,100-18.120E,117.3,   ----,31.9671,215,166
168,2004/1/4,13:50:00, 10-50.124N,100-18.319E,118.3,   ----,31.965,215,166
169,2004/1/4,13:51:00, 10-50.020N,100-18.519E,119.1,   ----,31.9635,   ----,166
170,2004/1/4,13:52:00, 10-49.912N,100-18.718E,118.9,   ----,31.9631,191,166
171,2004/1/4,13:53:00, 10-49.806N,100-18.920E,116,   ----,31.9621,204,166
172,2004/1/4,13:54:00, 10-49.704N,100-19.123E,118.6,   ----,31.9602,   ----,166
173,2004/1/4,13:55:00, 10-49.600N,100-19.321E,118.9,   ----,31.959,222,166
174,2004/1/4,13:56:00, 10-49.491N,100-19.523E,119.1,   ----,31.9603,191,166
175,2004/1/4,13:57:00, 10-49.383N,100-19.726E,118.5,   ----,31.9567,182,166
176,2004/1/4,13:58:00, 10-49.284N,100-19.927E,117.7,   ----,31.9562,290,166
177,2004/1/4,13:59:00, 10-49.182N,100-20.126E,116.7,   ----,31.9545,   ----,166
178,2004/1/4,14:00:00, 10-49.076N,100-20.331E,118.2,   ----,31.955,206,166
179,2004/1/4,14:01:00, 10-48.969N,100-20.532E,118,   ----,31.9547,215,166
180,2004/1/4,14:02:00, 10-48.863N,100-20.732E,118.6,   ----,31.9519,216,166
181,2004/1/4,14:03:00, 10-48.753N,100-20.933E,118.9,   ----,31.9501,256,166
182,2004/1/4,14:04:00, 10-48.645N,100-21.134E,119.4,   ----,31.9496,202,166
183,2004/1/4,14:05:00, 10-48.540N,100-21.333E,118.4,   ----,31.9492,186,166
184,2004/1/4,14:06:00, 10-48.432N,100-21.532E,118.3,   ----,31.9476,214,166
185,2004/1/4,14:07:00, 10-48.324N,100-21.732E,118.7,   ----,31.9453,181,166
186,2004/1/4,14:08:00, 10-48.216N,100-21.934E,117,   ----,31.9458,195,166
187,2004/1/4,14:09:00, 10-48.113N,100-22.136E,117.3,   ----,31.9449,207,166
188,2004/1/4,14:10:00, 10-48.012N,100-22.340E,114.8,   ----,31.942,273,166
189,2004/1/4,14:11:00, 10-47.907N,100-22.542E,118.8,   ----,31.9422,203,166
190,2004/1/4,14:12:00, 10-47.802N,100-22.744E,118.8,   ----,31.939,216,166
191,2004/1/4,14:13:00, 10-47.696N,100-22.944E,117.3,   ----,31.9354,195,166
192,2004/1/4,14:14:00, 10-47.589N,100-23.147E,119.3,   ----,31.9336,191,166
193,2004/1/4,14:15:00, 10-47.481N,100-23.347E,118.4,   ----,31.9309,190,166
194,2004/1/4,14:16:00, 10-47.376N,100-23.551E,115.9,   ----,31.9315,202,166
195,2004/1/4,14:17:00, 10-47.271N,100-23.754E,119.3,   ----,31.9308,226,166
196,2004/1/4,14:18:00, 10-47.164N,100-23.956E,117.8,   ----,31.9317,215,166
197,2004/1/4,14:19:00, 10-47.057N,100-24.158E,117.1,   ----,31.9303,   ----,166
198,2004/1/4,14:20:00, 10-46.950N,100-24.359E,117.7,   ----,31.9326,194,166
199,2004/1/4,14:21:00, 10-46.843N,100-24.562E,118.2,   ----,31.9327,206,166
200,2004/1/4,14:22:00, 10-46.740N,100-24.764E,116.3,   ----,31.9322,225,166
201,2004/1/4,14:23:00, 10-46.638N,100-24.969E,117.3,   ----,31.9289,246,166
202,2004/1/4,14:24:00, 10-46.534N,100-25.173E,118.5,   ----,31.9316,207,166
203,2004/1/4,14:25:00, 10-46.430N,100-25.376E,118.5,   ----,31.9313,212,166
204,2004/1/4,14:26:00, 10-46.322N,100-25.578E,117.1,   ----,31.9293,207,166
205,2004/1/4,14:27:00, 10-46.211N,100-25.778E,118,   ----,31.9296,192,166
206,2004/1/4,14:28:00, 10-46.104N,100-25.982E,119.3,   ----,31.929,210,166
207,2004/1/4,14:29:00, 10-45.990N,100-26.181E,116.8,   ----,31.9303,202,166
208,2004/1/4,14:30:00, 10-45.893N,100-26.388E,116.3,   ----,31.9309,208,166
209,2004/1/4,14:31:00, 10-45.786N,100-26.589E,119.4,   ----,31.9305,255,166
210,2004/1/4,14:32:00, 10-45.678N,100-26.789E,118.8,   ----,31.9326,195,166
211,2004/1/4,14:33:00, 10-45.572N,100-26.992E,116.7,   ----,31.9306,203,166
212,2004/1/4,14:34:00, 10-45.467N,100-27.195E,120.1,   ----,31.931,218,166
213,2004/1/4,14:35:00, 10-45.361N,100-27.397E,116,   ----,31.9297,208,166
214,2004/1/4,14:36:00, 10-45.255N,100-27.600E,119.5,   ----,31.9308,187,166
215,2004/1/4,14:37:00, 10-45.148N,100-27.802E,117.6,   ----,31.933,298,166
216,2004/1/4,14:38:00, 10-45.041N,100-28.005E,118.1,   ----,31.9354,289,166
217,2004/1/4,14:39:00, 10-44.931N,100-28.205E,118.3,   ----,31.9406,217,166
218,2004/1/4,14:40:00, 10-44.833N,100-28.412E,115.4,   ----,31.9404,206,166
219,2004/1/4,14:41:00, 10-44.725N,100-28.613E,119.4,   ----,31.9425,208,166
220,2004/1/4,14:42:00, 10-44.614N,100-28.814E,119.2,   ----,31.9452,194,166
221,2004/1/4,14:43:00, 10-44.509N,100-29.016E,116,   ----,31.9464,228,166
222,2004/1/4,14:44:00, 10-44.409N,100-29.221E,118.2,   ----,31.9486,183,166
223,2004/1/4,14:45:00, 10-44.300N,100-29.420E,119.1,   ----,31.9519,198,166
224,2004/1/4,14:46:00, 10-44.194N,100-29.621E,117.8,   ----,31.9558,   ----,166
225,2004/1/4,14:47:00, 10-44.089N,100-29.824E,116.2,   ----,31.962,214,166
226,2004/1/4,14:48:00, 10-43.986N,100-30.029E,116.9,   ----,31.962,200,166
227,2004/1/4,14:49:00, 10-43.877N,100-30.231E,117.4,   ----,31.9627,194,166
228,2004/1/4,14:50:00, 10-43.773N,100-30.435E,117,   ----,31.9483,295,166
229,2004/1/4,14:51:00, 10-43.667N,100-30.637E,117.5,   ----,31.9227,249,166
230,2004/1/4,14:52:00, 10-43.560N,100-30.842E,117,   ----,31.8873,192,166
231,2004/1/4,14:53:00, 10-43.455N,100-31.048E,118.6,   ----,31.792,221,166
232,2004/1/4,14:54:00, 10-43.349N,100-31.253E,115.6,   ----,31.6631,226,166
233,2004/1/4,14:55:00, 10-43.245N,100-31.460E,118.2,   ----,31.611,   ----,166
234,2004/1/4,14:56:00, 10-43.142N,100-31.666E,116.9,   ----,31.6019,217,166
235,2004/1/4,14:57:00, 10-43.034N,100-31.872E,117.5,   ----,31.6021,195,166
236,2004/1/4,14:58:00, 10-42.930N,100-32.078E,116.5,   ----,31.5964,219,166
237,2004/1/4,14:59:00, 10-42.823N,100-32.283E,117.1,   ----,31.5894,212,166
238,2004/1/4,15:00:00, 10-42.717N,100-32.488E,117,   ----,31.5762,232,166
239,2004/1/4,15:01:00, 10-42.606N,100-32.693E,117.4,   ----,31.5648,210,166
240,2004/1/4,15:02:00, 10-42.507N,100-32.900E,118.8,   ----,31.5615,214,166
241,2004/1/4,15:03:00, 10-42.405N,100-33.105E,115.9,   ----,31.5698,224,166
242,2004/1/4,15:04:00, 10-42.295N,100-33.309E,120.6,   ----,31.58,225,166
243,2004/1/4,15:05:00, 10-42.178N,100-33.507E,119,   ----,31.5195,192,166
244,2004/1/4,15:06:00, 10-42.065N,100-33.708E,120,   ----,31.4327,203,166
245,2004/1/4,15:07:00, 10-41.951N,100-33.908E,119.5,   ----,31.3662,216,166
246,2004/1/4,15:08:00, 10-41.836N,100-34.106E,119,   ----,31.3573,215,166
247,2004/1/4,15:09:00, 10-41.723N,100-34.306E,120.4,   ----,31.3304,215,166
248,2004/1/4,15:10:00, 10-41.607N,100-34.506E,120.9,   ----,31.2976,203,166
249,2004/1/4,15:11:00, 10-41.491N,100-34.705E,119.6,   ----,31.3,220,166
250,2004/1/4,15:12:00, 10-41.379N,100-34.909E,118.9,   ----,31.2918,207,166
251,2004/1/4,15:13:00, 10-41.264N,100-35.109E,119.5,   ----,31.2815,228,166
252,2004/1/4,15:14:00, 10-41.153N,100-35.312E,119.7,   ----,31.2815,210,166
253,2004/1/4,15:15:00, 10-41.041N,100-35.514E,119.2,   ----,31.2666,203,166
254,2004/1/4,15:16:00, 10-40.928N,100-35.716E,119.6,   ----,31.2497,219,166
255,2004/1/4,15:17:00, 10-40.817N,100-35.919E,117.6,   ----,31.2263,189,166
256,2004/1/4,15:18:00, 10-40.709N,100-36.124E,119.3,   ----,31.2142,199,166
257,2004/1/4,15:19:00, 10-40.600N,100-36.328E,119.4,   ----,31.2084,210,166
258,2004/1/4,15:20:00, 10-40.487N,100-36.531E,118.4,   ----,31.1952,209,166
259,2004/1/4,15:21:00, 10-40.377N,100-36.735E,118.8,   ----,31.1777,205,166
260,2004/1/4,15:22:00, 10-40.265N,100-36.938E,118.4,   ----,31.1675,182,166
261,2004/1/4,15:23:00, 10-40.155N,100-37.142E,118.4,   ----,31.1564,247,166
262,2004/1/4,15:24:00, 10-40.043N,100-37.345E,119.6,   ----,31.147,207,166
263,2004/1/4,15:25:00, 10-39.932N,100-37.549E,118.8,   ----,31.1333,213,166
264,2004/1/4,15:26:00, 10-39.821N,100-37.752E,119.9,   ----,31.123,220,166
265,2004/1/4,15:27:00, 10-39.709N,100-37.955E,118.9,   ----,31.1133,222,166
266,2004/1/4,15:28:00, 10-39.593N,100-38.157E,118.7,   ----,31.1006,223,166
267,2004/1/4,15:29:00, 10-39.485N,100-38.362E,119.7,   ----,31.0884,207,166
268,2004/1/4,15:30:00, 10-39.373N,100-38.564E,119.5,   ----,31.0703,212,166
269,2004/1/4,15:31:00, 10-39.260N,100-38.766E,118.5,   ----,31.0563,212,166
270,2004/1/4,15:32:00, 10-39.151N,100-38.969E,119.3,   ----,31.044,208,166
271,2004/1/4,15:33:00, 10-39.038N,100-39.172E,120.6,   ----,31.0324,213,166
272,2004/1/4,15:34:00, 10-38.929N,100-39.376E,118.3,   ----,31.0269,   ----,166
273,2004/1/4,15:35:00, 10-38.816N,100-39.579E,118.4,   ----,31.0196,186,166
274,2004/1/4,15:36:00, 10-38.707N,100-39.784E,118.1,   ----,31.0164,224,166
275,2004/1/4,15:37:00, 10-38.598N,100-39.989E,117.6,   ----,31.0106,200,166
276,2004/1/4,15:38:00, 10-38.489N,100-40.194E,117.5,   ----,31.0064,223,166
277,2004/1/4,15:39:00, 10-38.379N,100-40.397E,118.9,   ----,30.9969,207,166
278,2004/1/4,15:40:00, 10-38.270N,100-40.601E,117.6,   ----,30.9949,186,166
279,2004/1/4,15:41:00, 10-38.161N,100-40.805E,117.9,   ----,30.9893,228,166
280,2004/1/4,15:42:00, 10-38.062N,100-41.015E,116,   ----,30.9808,196,166
281,2004/1/4,15:43:00, 10-37.962N,100-41.225E,115.2,   ----,30.9745,199,166
282,2004/1/4,15:44:00, 10-37.862N,100-41.435E,117.4,   ----,30.97,206,166
283,2004/1/4,15:45:00, 10-37.760N,100-41.643E,115.1,   ----,30.9601,253,166
284,2004/1/4,15:46:00, 10-37.660N,100-41.853E,115.3,   ----,30.9505,201,166
285,2004/1/4,15:47:00, 10-37.564N,100-42.066E,114.6,   ----,30.9418,168,166
286,2004/1/4,15:48:00, 10-37.465N,100-42.276E,114.7,   ----,30.9375,271,166
287,2004/1/4,15:49:00, 10-37.368N,100-42.488E,114.4,   ----,30.9293,200,166
288,2004/1/4,15:50:00, 10-37.271N,100-42.699E,115,   ----,30.9239,197,166
289,2004/1/4,15:51:00, 10-37.170N,100-42.910E,116,   ----,30.9178,179,166
290,2004/1/4,15:52:00, 10-37.069N,100-43.119E,116.5,   ----,30.9138,204,166
291,2004/1/4,15:53:00, 10-36.965N,100-43.327E,117.3,   ----,30.911,220,166
292,2004/1/4,15:54:00, 10-36.855N,100-43.532E,117.4,   ----,30.9081,203,166
293,2004/1/4,15:55:00, 10-36.754N,100-43.742E,115,   ----,30.9052,231,166
294,2004/1/4,15:56:00, 10-36.651N,100-43.948E,118.5,   ----,30.9024,197,166
295,2004/1/4,15:57:00, 10-36.543N,100-44.152E,113.3,   ----,30.8974,180,166
296,2004/1/4,15:58:00, 10-36.447N,100-44.361E,116.1,   ----,30.8948,208,166
297,2004/1/4,15:59:00, 10-36.344N,100-44.570E,115.7,   ----,30.8923,   ----,166
298,2004/1/4,16:00:00, 10-36.246N,100-44.779E,115.5,   ----,30.8894,234,166
299,2004/1/4,16:01:00, 10-36.148N,100-44.988E,117.2,   ----,30.8863,217,166
300,2004/1/4,16:02:00, 10-36.049N,100-45.195E,116.4,   ----,30.8844,187,166
301,2004/1/4,16:03:00, 10-35.946N,100-45.404E,116.8,   ----,30.883,230,166
302,2004/1/4,16:04:00, 10-35.848N,100-45.612E,115.7,   ----,30.8821,194,166
303,2004/1/4,16:05:00, 10-35.755N,100-45.823E,114.6,   ----,30.8807,210,166
304,2004/1/4,16:06:00, 10-35.656N,100-46.028E,114,   ----,30.8798,184,166
305,2004/1/4,16:07:00, 10-35.556N,100-46.236E,114.9,   ----,30.878,214,166
306,2004/1/4,16:08:00, 10-35.459N,100-46.446E,115,   ----,30.8771,187,166
307,2004/1/4,16:09:00, 10-35.363N,100-46.659E,115.7,   ----,30.8768,215,166
308,2004/1/4,16:10:00, 10-35.261N,100-46.869E,113.5,   ----,30.8772,206,166
309,2004/1/4,16:11:00, 10-35.164N,100-47.078E,116.1,   ----,30.8772,224,166
310,2004/1/4,16:12:00, 10-35.064N,100-47.288E,115.4,   ----,30.8755,213,166
311,2004/1/4,16:13:00, 10-34.963N,100-47.496E,115.8,   ----,30.8735,202,166
312,2004/1/4,16:14:00, 10-34.866N,100-47.706E,115.7,   ----,30.8715,216,166
313,2004/1/4,16:15:00, 10-34.769N,100-47.914E,114.4,   ----,30.8704,218,166
314,2004/1/4,16:16:00, 10-34.671N,100-48.124E,118.5,   ----,30.8695,195,166
315,2004/1/4,16:17:00, 10-34.571N,100-48.333E,114.8,   ----,30.8683,211,166
316,2004/1/4,16:18:00, 10-34.474N,100-48.545E,115.3,   ----,30.8661,208,166
317,2004/1/4,16:19:00, 10-34.375N,100-48.754E,114.9,   ----,30.8643,209,166
318,2004/1/4,16:20:00, 10-34.275N,100-48.962E,117.3,   ----,30.8611,216,166
319,2004/1/4,16:21:00, 10-34.171N,100-49.168E,115.6,   ----,30.8577,209,166
320,2004/1/4,16:22:00, 10-34.075N,100-49.380E,115,   ----,30.8557,204,166
321,2004/1/4,16:23:00, 10-33.977N,100-49.590E,115.6,   ----,30.8525,212,166
322,2004/1/4,16:24:00, 10-33.878N,100-49.801E,114.7,   ----,30.8506,207,166
323,2004/1/4,16:25:00, 10-33.781N,100-50.012E,115.4,   ----,30.8485,201,166
324,2004/1/4,16:26:00, 10-33.684N,100-50.221E,115,   ----,30.8452,212,166
325,2004/1/4,16:27:00, 10-33.584N,100-50.431E,114.8,   ----,30.8429,213,166
326,2004/1/4,16:28:00, 10-33.486N,100-50.643E,115.1,   ----,30.8404,226,166
327,2004/1/4,16:29:00, 10-33.388N,100-50.853E,115.5,   ----,30.8382,194,166
328,2004/1/4,16:30:00, 10-33.289N,100-51.065E,114,   ----,30.8352,214,166
329,2004/1/4,16:31:00, 10-33.190N,100-51.276E,115,   ----,30.831,   ----,166
330,2004/1/4,16:32:00, 10-33.098N,100-51.490E,114.3,   ----,30.8272,271,166
331,2004/1/4,16:33:00, 10-32.997N,100-51.700E,114.7,   ----,30.8239,276,166
332,2004/1/4,16:34:00, 10-32.895N,100-51.909E,116.9,   ----,30.8185,221,166
333,2004/1/4,16:35:00, 10-32.792N,100-52.119E,115,   ----,30.8141,214,166
334,2004/1/4,16:36:00, 10-32.693N,100-52.330E,114.9,   ----,30.8101,206,166
335,2004/1/4,16:37:00, 10-32.596N,100-52.542E,116.5,   ----,30.8072,197,166
336,2004/1/4,16:38:00, 10-32.496N,100-52.756E,114.5,   ----,30.805,185,166
337,2004/1/4,16:39:00, 10-32.399N,100-52.966E,115.7,   ----,30.8015,198,166
338,2004/1/4,16:40:00, 10-32.302N,100-53.178E,113.8,   ----,30.7967,189,166
339,2004/1/4,16:41:00, 10-32.201N,100-53.389E,115.5,   ----,30.7933,203,166
340,2004/1/4,16:42:00, 10-32.107N,100-53.603E,115.7,   ----,30.7897,   ----,166
341,2004/1/4,16:43:00, 10-32.007N,100-53.813E,116.7,   ----,30.7869,176,166
342,2004/1/4,16:44:00, 10-31.908N,100-54.026E,114.5,   ----,30.7835,   ----,166
343,2004/1/4,16:45:00, 10-31.808N,100-54.235E,114,   ----,30.7807,240,166
344,2004/1/4,16:46:00, 10-31.710N,100-54.448E,115.2,   ----,30.7762,232,166
345,2004/1/4,16:47:00, 10-31.612N,100-54.658E,115.6,   ----,30.7741,200,166
346,2004/1/4,16:48:00, 10-31.513N,100-54.869E,115.3,   ----,30.7728,169,166
347,2004/1/4,16:49:00, 10-31.413N,100-55.082E,114.1,   ----,30.7721,210,166
348,2004/1/4,16:50:00, 10-31.308N,100-55.290E,116.9,   ----,30.7719,223,166
349,2004/1/4,16:51:00, 10-31.200N,100-55.495E,117.9,   ----,30.77,210,166
350,2004/1/4,16:52:00, 10-31.088N,100-55.699E,119.9,   ----,30.7678,204,166
351,2004/1/4,16:53:00, 10-30.981N,100-55.904E,117.2,   ----,30.7677,189,166
352,2004/1/4,16:54:00, 10-30.875N,100-56.112E,116.8,   ----,30.768,286,166
353,2004/1/4,16:55:00, 10-30.769N,100-56.317E,119.1,   ----,30.7651,207,166
354,2004/1/4,16:56:00, 10-30.664N,100-56.525E,116.7,   ----,30.7628,193,166
355,2004/1/4,16:57:00, 10-30.558N,100-56.730E,117.9,   ----,30.7568,213,166
356,2004/1/4,16:58:00, 10-30.451N,100-56.936E,117.9,   ----,30.7569,191,166
357,2004/1/4,16:59:00, 10-30.341N,100-57.141E,117.3,   ----,30.7556,257,166
358,2004/1/4,17:00:00, 10-30.234N,100-57.345E,117.5,   ----,30.7557,204,166
359,2004/1/4,17:01:00, 10-30.133N,100-57.556E,116.8,   ----,30.7575,208,166
360,2004/1/4,17:02:00, 10-30.026N,100-57.762E,116.7,   ----,30.7596,223,166
361,2004/1/4,17:03:00, 10-29.918N,100-57.968E,118.3,   ----,30.7594,203,166
362,2004/1/4,17:04:00, 10-29.809N,100-58.172E,117.2,   ----,30.7593,   ----,166
363,2004/1/4,17:05:00, 10-29.702N,100-58.377E,119.1,   ----,30.7581,223,166
364,2004/1/4,17:06:00, 10-29.594N,100-58.582E,118,   ----,30.7571,206,166
365,2004/1/4,17:07:00, 10-29.484N,100-58.787E,119.2,   ----,30.7566,205,166
366,2004/1/4,17:08:00, 10-29.379N,100-58.992E,118.8,   ----,30.7551,225,166
367,2004/1/4,17:09:00, 10-29.282N,100-59.200E,114.9,   ----,30.7535,217,166
368,2004/1/4,17:10:00, 10-29.187N,100-59.411E,112,   ----,30.7505,196,166
369,2004/1/4,17:11:00, 10-29.095N,100-59.622E,115.2,   ----,30.7472,169,166
370,2004/1/4,17:12:00, 10-28.996N,100-59.834E,115.6,   ----,30.743,173,166
371,2004/1/4,17:13:00, 10-28.906N,101-00.049E,112.5,   ----,30.7395,223,166
372,2004/1/4,17:14:00, 10-28.809N,101-00.259E,117.7,   ----,30.736,214,166
373,2004/1/4,17:15:00, 10-28.709N,101-00.467E,115.7,   ----,30.7334,   ----,166
374,2004/1/4,17:16:00, 10-28.613N,101-00.677E,116.1,   ----,30.7304,305,166
375,2004/1/4,17:17:00, 10-28.511N,101-00.885E,115.8,   ----,30.7291,210,166
376,2004/1/4,17:18:00, 10-28.414N,101-01.094E,116.5,   ----,30.7275,167,166
377,2004/1/4,17:19:00, 10-28.318N,101-01.304E,114.9,   ----,30.7253,220,166
378,2004/1/4,17:20:00, 10-28.222N,101-01.515E,115.8,   ----,30.7248,202,166
379,2004/1/4,17:21:00, 10-28.127N,101-01.726E,114.4,   ----,30.7236,233,166
380,2004/1/4,17:22:00, 10-28.024N,101-01.931E,115.8,   ----,30.7222,227,166
381,2004/1/4,17:23:00, 10-27.927N,101-02.140E,116.2,   ----,30.7219,174,166
382,2004/1/4,17:24:00, 10-27.829N,101-02.346E,115.5,   ----,30.7218,188,166
383,2004/1/4,17:25:00, 10-27.730N,101-02.554E,114.8,   ----,30.7212,   ----,166
384,2004/1/4,17:26:00, 10-27.635N,101-02.763E,112,   ----,30.7217,209,166
385,2004/1/4,17:27:00, 10-27.544N,101-02.977E,115.2,   ----,30.7258,195,166
386,2004/1/4,17:28:00, 10-27.444N,101-03.187E,114.2,   ----,30.7278,229,166
387,2004/1/4,17:29:00, 10-27.347N,101-03.391E,115.7,   ----,30.7285,272,166
388,2004/1/4,17:30:00, 10-27.252N,101-03.602E,114.5,   ----,30.7289,240,166